Preview of NWS' New Version of Forecast
This preview is not operational and should not be used for support decisions.
Latest weather observations around

Baltimore, Baltimore-Washington International Airport (KBWI)

Using English Units (Switch to International System of Units)
Date/ Time (EDT) Wind (mph) Vis. (mi) Weather Sky Cond. Temp (°F) Rel. Humidity Wind Chill (°F) Heat Index (°F) Pressure Precip. (in)
Air Dwpt 6 hour Altimeter (inHg) Sea level (inHg) 1 hr 3 hr 6 hr
Max Min
Sep 20 17:54 SW 5 10 Partly Cloudy SCT250 79 46     31%   78 30.19 30.19      
Sep 20 16:54 SW 8 10 Clear CLR 81 46     29%   80 30.19 30.19      
Sep 20 15:54 3 10 Clear CLR 80 45     29%   79 30.2 30.19      
Sep 20 14:54 W 9 10 Clear CLR 80 45     29%   79 30.21 30.21      
Sep 20 13:54 Calm 10 Mostly Cloudy BKN250 77 46     33%   76 30.24 30.23      
Sep 20 12:54 S 7 10 Mostly Cloudy BKN250 76 48     37%   75 30.26 30.26      
Sep 20 11:54 6 10 Mostly Cloudy BKN250 73 49     43%   72 30.29 30.28      
Sep 20 10:54 WSW 13 10 Mostly Cloudy BKN250 72 50     46%   71 30.3 30.3      
Sep 20 09:54 WSW 10 10 Mostly Cloudy BKN250 68 51     55%     30.32 30.32      
Sep 20 08:54 WSW 5 10 Partly Cloudy SCT250 62 51     67%     30.33 30.33      
Sep 20 07:54 W 3 10 Partly Cloudy SCT250 53 49     86%     30.32 30.31      
Sep 20 06:54 Calm 10 Partly Cloudy FEW070 SCT250 50 47     89%     30.3 30.3      
Sep 20 05:54 Calm 10 Partly Cloudy SCT250 50 48     93%     30.3 30.3      
Sep 20 04:54 Calm 10 Mostly Clear FEW250 52 48     86%     30.29 30.29      
Sep 20 03:54 W 3 10 Mostly Clear FEW250 49 47     93% 48   30.29 30.28      
Sep 20 02:54 Calm 10 Mostly Clear FEW250 52 48     86%     30.28 30.28      
Sep 20 01:54 W 3 10 Clear CLR 52 49     89%     30.29 30.28      
Sep 20 00:54 Calm 10 Clear CLR 51 47     86%     30.28 30.28      
Sep 19 23:54 Calm 10 Mostly Clear FEW250 55 48     77%     30.29 30.29      
Sep 19 22:54 Calm 10 Mostly Clear FEW250 56 48     75%     30.29 30.29      
Sep 19 21:54 Calm 10 Clear CLR 59 48     67%     30.29 30.29      
Sep 19 20:54 Calm 10 Mostly Clear FEW250 59 47     64%     30.29 30.29      
Sep 19 19:54 SE 6 10 Mostly Clear FEW180 FEW250 65 46     50%     30.29 30.29      
Sep 19 18:54 ESE 3 10 Mostly Clear FEW180 FEW250 69 41     36%     30.3 30.29      
Sep 19 17:54 Calm 10 Mostly Clear FEW250 71 41     34%   69 30.29 30.29      
Sep 19 16:54 NE 5 10 Mostly Clear FEW250 72 44     37%   71 30.29 30.29      
Sep 19 15:54 3 10 Mostly Clear FEW180 FEW250 72 39     30%   70 30.29 30.29      
Sep 19 14:54 ENE 7 10 Mostly Clear FEW044 FEW180 FEW250 71 37     29%   69 30.31 30.31      
Sep 19 13:54 ENE 6 10 Partly Cloudy FEW037 FEW180 SCT250 71 37     29%   69 30.33 30.33      
Sep 19 13:08 NE 9 10 Mostly Cloudy FEW037 FEW180 BKN250 70 39     32%     30.34        
Sep 19 12:54 ENE 7 10 Mostly Cloudy FEW037 FEW180 BKN250 69 41     36%     30.34 30.34      
Sep 19 11:54 6 10 Mostly Cloudy FEW037 FEW180 BKN250 67 42     40%     30.36 30.35      
Sep 19 10:54 ESE 9 10 Partly Cloudy FEW032 SCT180 SCT250 67 43     42%     30.36 30.36      
Sep 19 09:54 E 9 10 Partly Cloudy FEW031 SCT180 SCT250 65 46     50%     30.36 30.35      
Sep 19 08:54 E 14 10 Partly Cloudy SCT036 SCT180 SCT250 63 49     60%     30.34 30.34      
Sep 19 07:54 ENE 6 10 Partly Cloudy FEW032 SCT250 60 52     75%     30.33 30.32      
Sep 19 06:54 Calm 10 Partly Cloudy FEW026 SCT250 57 50     77%     30.32 30.32      
Sep 19 05:54 ENE 5 10 Mostly Clear FEW250 57 50     77%     30.31 30.3      
Sep 19 04:54 E 7 10 Mostly Clear FEW250 58 49     72%     30.3 30.3      
Sep 19 03:54 E 7 10 Mostly Clear FEW250 59 50     72%     30.29 30.29      
Sep 19 02:54 E 6 10 Mostly Clear FEW025 59 51     75%     30.28 30.28      
Sep 19 01:54 E 8 10 Mostly Clear FEW025 60 52     75%     30.29 30.28      
Sep 19 00:54 E 10 10 Mostly Clear FEW025 FEW250 62 53     72%     30.28 30.28      
Sep 18 23:54 E 9 10 Partly Cloudy FEW025 SCT250 63 54     72%     30.28 30.27      
Sep 18 22:54 ESE 8 10 Mostly Clear FEW065 FEW250 65 54     68%     30.27 30.26      
Sep 18 21:54   10 Partly Cloudy SCT060 67 55     66%     30.25 30.24      
Sep 18 20:54 ENE 10 10 Mostly Clear FEW060 FEW250 70 51     51%     30.23 30.22      
Sep 18 19:54 E 8 10 Partly Cloudy FEW060 SCT250 71 51     49%   70 30.21 30.21      
Sep 18 18:54 E 8 10 Partly Cloudy SCT060 SCT250 72 51     48%   71 30.2 30.19      
Sep 18 17:54 6 10 Partly Cloudy FEW065 SCT250 75 51     43%   74 30.18 30.18      
Sep 18 16:54 E 11 10 Partly Cloudy SCT065 SCT250 77 51     40%   76 30.18 30.18      
Sep 18 15:54 E 8 10 Partly Cloudy SCT065 SCT250 77 51     40%   76 30.19 30.19      
Sep 18 14:54 NE 6 10 Partly Cloudy SCT060 SCT250 78 51     39%   77 30.18 30.18      
Sep 18 13:54 E 9 10 Partly Cloudy SCT050 77 51     40%   76 30.19 30.19      
Sep 18 12:54 E 10 10 Partly Cloudy SCT050 SCT070 73 52     48%   72 30.21 30.21      
Notice The following observation data may not be complete
Sep 18 11:54   10 Partly Cloudy SCT039          %              
Sep 18 09:54 E 9 10 Mostly Clear FEW032 71 56     59%   71 30.21 30.21      
Sep 18 08:54 NNE 9 10 Mostly Clear FEW028 67 57     71%     30.2 30.2      
Sep 18 08:28 NNE 5 10 Mostly Clear FEW022 66 58     75%     30.2        
Sep 18 07:54 Calm 10 Mostly Clear FEW022 62 57     84%     30.19 30.19      
Sep 18 06:54 Calm 10 Clear CLR 60 56     86%     30.17 30.17      
Sep 18 05:54 Calm 10 Mostly Clear FEW028 FEW250 58 55     90%     30.15 30.15      
Sep 18 04:54 WNW 3 10 Mostly Clear FEW028 FEW250 59 56     90%     30.14 30.14      
Sep 18 03:54 Calm 10 Mostly Clear FEW250 57 55     93%     30.15 30.14      
Sep 18 02:54 Calm 10 Clear CLR 60 56     86%     30.13 30.13      
Sep 18 01:54 Calm 10 Clear CLR 59 57     93%     30.13 30.12      
Sep 18 00:54 Calm 10 Clear CLR 62 57     84%     30.13 30.13      
Sep 17 23:54 Calm 10 Clear CLR 65 57     76%     30.13 30.12      
Sep 17 22:54 Calm 10 Clear   64 56     75%     30.12 30.11      
Sep 17 21:54 SE 5 10 Clear CLR 71 56     59%   71 30.11 30.11      
Sep 17 20:54 Calm 10 Clear CLR 72 55     55%   71 30.11 30.1      
Sep 17 19:54 Calm 10 Mostly Clear FEW040 FEW100 74 56     53%   74 30.09 30.09      
Sep 17 18:54 E 7 10 Mostly Clear FEW050 FEW200 76 56     50%   76 30.08 30.08      
Sep 17 17:54 E 8 10 Mostly Clear FEW050 FEW200 79 56     45%   79 30.07 30.07      
May 13 23:54 E 7 6 Fog/Mist OVC008 60 59     96%     30.03 30.03      
May 13 04:44 N 6 6 Fog/Mist BKN012 BKN075 OVC120 63 61     93%     30.07        
May 12 03:54 NNE 7 10 Partly Cloudy SCT140 65 60     84%     30.02 30.01      
May 11 23:54 Calm 10 Mostly Cloudy SCT100 BKN150 65 54     68%     30.06 30.05      
May 11 20:54 E 7 10 Partly Cloudy FEW150 SCT250 72 53     51%   71 30.04 30.03      
May 11 09:54 7 10 Mostly Clear FEW048 FEW250 76 53     45%   75 30.01 30.01      
Jun 12 06:54 WNW 3 10 Mostly Cloudy SCT085 BKN140 BKN200 73 66     79%   74 30.1 30.1      
Jun 11 10:54 W 13 10 Mostly Clear FEW250 87 63     45%   88 30.13 30.12      
Jun 10 01:54 SW 3 10 Mostly Clear FEW120 FEW250 63 55     75%     29.97 29.97      
Jun 09 12:54 WNW 9 10 Partly Cloudy SCT060 78 55     45%   78 29.84 29.84      
Jun 08 02:54 Calm 10 Clear CLR 51 50     96%     30.03 30.02      
Jun 07 15:46 ENE 11 10 Cloudy BKN030 OVC050 64 54     70%     30        
Jun 06 05:54 WNW 8 6 Partly Cloudy FEW080 SCT120 64 63     96%     29.68 29.68